Terminal Aerodrome Forecast
Issued by NWS Portland, OR

Home | Current Version | Previous Version | Text Only | Print | Product List | Glossary On
Versions: 1 2 3 4 5 6 7 8 9 10 11 12 13 14 15 16 17 18 19 20 21 22 23 24 25 26 27 28 29 30 31 32 33 34 35 36 37 38 39 40 41 42 43 44 45 46 47 48 49 50
916
FTUS46 KPQR 141735
TAFAST
TAF
KAST 141735Z 1418/1518 23012G20KT 3SM -RA BR OVC005
      TEMPO 1418/1420 2SM RA BR
     FM150000 23012G20KT 5SM -RA BR SCT007 BKN012 OVC025
     FM150500 22013G21KT P6SM -RA BKN015 OVC250
     FM151500 22013G21KT 4SM -RA BR BKN007 OVC015=

USA.gov is the U.S. government's official web portal to all federal, state and local government web resources and services.